GW5248 Weather Reports


time (UTC)temp
C
wind
direction
speed
KPH
gust
KPH
rain 1hr
cm
rain 24hr
cm
rain mn
cm
humidity
%
barometer
mb
20260504150719 20 343 11.3 17.7 0.00 0.00 0.00 47 1015.0
20260504150219 19 338 6.4 9.7 0.00 0.00 0.00 48 1015.0
20260504141220 17 300 8.0 16.1 0.00 0.00 0.00 54 1015.0
20260504140720 17 314 12.9 19.3 0.00 0.00 0.00 55 1015.0
20260504140221 17 328 9.7 14.5 0.00 0.00 0.00 56 1015.0
20260504130719 15 308 12.9 20.9 0.00 0.00 0.00 65 1016.0
20260504130221 15 318 14.5 22.5 0.00 0.00 0.00 65 1016.0
20260504120218 12 251 11.3 14.5 0.00 0.00 0.00 72 1016.0
20260504110718 10 248 8.0 11.3 0.00 0.00 0.00 79 1017.0
20260504110219 10 254 9.7 11.3 0.00 0.00 0.00 79 1017.0
20260504100221 10 244 4.8 8.0 0.00 0.00 0.00 80 1016.0
20260504081719 9 285 4.8 6.4 0.00 0.00 0.00 77 1017.0
20260504081219 9 263 4.8 8.0 0.00 0.00 0.00 77 1017.0
20260504080718 9 257 8.0 12.9 0.00 0.00 0.00 77 1017.0
20260504080219 8 260 6.4 12.9 0.00 0.00 0.00 76 1017.0
20260504070218 8 258 11.3 16.1 0.00 0.00 0.00 68 1017.0
20260504060218 7 284 6.4 8.0 0.00 0.00 0.00 67 1017.0
20260504050718 7 264 3.2 6.4 0.00 0.00 0.00 68 1017.0
20260504050219 7 263 3.2 6.4 0.00 0.00 0.00 69 1017.0
20260504045718 7 249 3.2 6.4 0.00 0.00 0.00 68 1017.0
20260504045218 7 312 4.8 8.0 0.00 0.00 0.00 67 1017.0
20260504044719 6 311 3.2 6.4 0.00 0.00 0.00 70 1017.0
20260504044218 6 217 3.2 6.4 0.00 0.00 0.00 70 1016.0
20260504043718 6 220 3.2 3.2 0.00 0.00 0.00 70 1017.0
20260504043218 6 216 0.0 3.2 0.00 0.00 0.00 69 1017.0
20260504042718 5 255 1.6 3.2 0.00 0.00 0.00 70 1017.0
20260504042219 5 0 0.0 0.0 0.00 0.00 0.00 71 1016.0
20260504041719 6 259 1.6 3.2 0.00 0.00 0.00 70 1016.0
20260504041218 6 225 0.0 3.2 0.00 0.00 0.00 69 1016.0
20260504040720 6 218 1.6 3.2 0.00 0.00 0.00 67 1016.0
20260504040218 6 227 1.6 3.2 0.00 0.00 0.00 67 1016.0
20260504035719 6 118 0.0 3.2 0.00 0.00 0.00 67 1016.0
20260504035218 7 52 0.0 1.6 0.00 0.00 0.00 66 1016.0
20260504034718 7 53 3.2 4.8 0.00 0.00 0.00 64 1016.0
20260504034219 7 299 3.2 6.4 0.00 0.00 0.00 63 1016.0
20260504033718 7 150 0.0 3.2 0.00 0.00 0.00 63 1016.0
20260504033220 8 328 3.2 4.8 0.00 0.00 0.00 62 1016.0
20260504032718 8 322 3.2 6.4 0.00 0.00 0.00 59 1016.0
20260504032219 8 303 6.4 9.7 0.00 0.00 0.00 60 1016.0
20260504031718 8 301 1.6 4.8 0.00 0.00 0.00 61 1016.0
20260504031218 8 268 0.0 4.8 0.00 0.00 0.00 61 1016.0
20260504030718 8 288 0.0 3.2 0.00 0.00 0.00 59 1016.0
20260504030218 7 311 4.8 6.4 0.00 0.00 0.00 60 1016.0
20260504025719 7 309 3.2 9.7 0.00 0.00 0.00 64 1016.0
20260504025218 7 182 0.0 1.6 0.00 0.00 0.00 65 1016.0
20260504024719 7 234 0.0 3.2 0.00 0.00 0.00 65 1016.0
20260504024218 7 211 3.2 3.2 0.00 0.00 0.00 64 1016.0
20260504023718 8 223 0.0 3.2 0.00 0.00 0.00 62 1016.0
20260504023218 8 277 3.2 4.8 0.00 0.00 0.00 60 1016.0
20260504022718 8 292 3.2 8.0 0.00 0.00 0.00 60 1016.0
20260504022218 7 0 0.0 0.0 0.00 0.00 0.00 62 1016.0
20260504021718 8 321 0.0 0.0 0.00 0.00 0.00 61 1016.0
20260504021218 8 357 0.0 1.6 0.00 0.00 0.00 60 1016.0
20260504020718 8 314 0.0 3.2 0.00 0.00 0.00 59 1016.0
20260504020218 8 292 3.2 4.8 0.00 0.00 0.00 58 1016.0
20260504015719 7 310 1.6 6.4 0.00 0.00 0.00 61 1016.0
20260504015218 7 0 0.0 0.0 0.00 0.00 0.00 64 1016.0
20260504014719 8 13 1.6 3.2 0.00 0.00 0.00 62 1016.0
20260504014218 8 206 0.0 3.2 0.00 0.00 0.00 60 1016.0
20260504013718 8 249 1.6 4.8 0.00 0.00 0.00 60 1016.0
20260504013219 7 246 1.6 3.2 0.00 0.00 0.00 60 1016.0
20260504012718 7 272 0.0 0.0 0.00 0.00 0.00 62 1016.0
20260504012218 8 0 0.0 0.0 0.00 0.00 0.00 61 1016.0
20260504011718 8 0 0.0 0.0 0.00 0.00 0.00 60 1016.0
20260504011219 8 293 0.0 1.6 0.00 0.00 0.00 60 1015.0
20260504010718 9 255 1.6 3.2 0.00 0.00 0.00 58 1015.0
20260504010219 10 0 0.0 0.0 0.00 0.00 0.00 56 1015.0
20260504005718 10 261 0.0 1.6 0.00 0.00 0.00 55 1015.0
20260504005218 10 315 0.0 3.2 0.00 0.00 0.00 53 1015.0
20260504004719 10 273 3.2 3.2 0.00 0.00 0.00 52 1015.0
20260504004219 10 0 0.0 0.0 0.00 0.00 0.00 54 1015.0
20260504003718 10 40 0.0 1.6 0.00 0.00 0.00 51 1015.0
20260504003218 11 354 0.0 0.0 0.00 0.00 0.00 50 1015.0
20260504002718 11 344 0.0 0.0 0.00 0.00 0.00 49 1015.0
20260504002218 11 279 3.2 4.8 0.00 0.00 0.00 47 1015.0
20260504001718 12 293 3.2 4.8 0.00 0.00 0.00 47 1015.0
20260504001218 12 276 1.6 3.2 0.00 0.00 0.00 47 1015.0
20260504000721 12 299 0.0 3.2 0.00 0.00 0.00 47 1015.0
20260504000219 12 338 3.2 6.4 0.00 0.00 0.00 46 1015.0
20260503235718 12 341 1.6 3.2 0.00 0.00 0.00 45 1015.0
20260503235218 12 321 3.2 6.4 0.00 0.00 0.00 45 1015.0
20260503234718 12 337 3.2 4.8 0.00 0.00 0.00 44 1015.0
20260503234218 13 346 3.2 4.8 0.00 0.00 0.00 43 1015.0
20260503233718 13 357 3.2 6.4 0.00 0.00 0.00 42 1015.0
20260503233218 13 13 4.8 8.0 0.00 0.00 0.00 41 1015.0
20260503232718 14 5 4.8 8.0 0.00 0.00 0.00 41 1015.0
20260503232220 14 10 8.0 11.3 0.00 0.00 0.00 40 1015.0
20260503231718 14 22 14.5 16.1 0.00 0.00 0.00 39 1015.0
20260503231218 15 20 14.5 17.7 0.00 0.00 0.00 39 1014.0
20260503230718 15 19 14.5 17.7 0.00 0.00 0.00 39 1014.0
20260503225745 15 23 16.1 20.9 0.00 0.00 0.00 38 1014.0
20260503225218 15 29 14.5 17.7 0.00 0.00 0.00 38 1014.0
20260503224718 15 34 19.3 24.1 0.00 0.00 0.00 38 1014.0
20260503224218 15 29 19.3 25.7 0.00 0.00 0.00 38 1014.0
20260503223718 15 17 22.5 27.4 0.00 0.00 0.00 38 1014.0
20260503223218 15 11 17.7 24.1 0.00 0.00 0.00 38 1014.0
20260503222718 15 14 12.9 17.7 0.00 0.00 0.00 38 1014.0
20260503222218 15 17 16.1 20.9 0.00 0.00 0.00 39 1014.0
20260503221718 15 21 19.3 24.1 0.00 0.00 0.00 39 1014.0
20260503221219 15 4 19.3 35.4 0.00 0.00 0.00 38 1014.0
20260503220718 15 18 16.1 22.5 0.00 0.00 0.00 38 1014.0
20260503220219 15 7 17.7 20.9 0.00 0.00 0.00 38 1014.0
20260503215718 15 356 14.5 19.3 0.00 0.00 0.00 38 1014.0
20260503215218 15 12 17.7 20.9 0.00 0.00 0.00 38 1014.0
20260503214719 15 40 12.9 17.7 0.00 0.00 0.00 38 1014.0
20260503214218 15 353 14.5 17.7 0.00 0.00 0.00 38 1014.0
20260503213718 15 21 12.9 19.3 0.00 0.00 0.00 38 1014.0
20260503213219 15 24 14.5 20.9 0.00 0.00 0.00 38 1014.0
20260503212718 15 7 17.7 24.1 0.00 0.00 0.00 38 1014.0
20260503212218 15 21 17.7 24.1 0.00 0.00 0.00 38 1014.0
20260503211718 15 0 17.7 24.1 0.00 0.00 0.00 38 1014.0
20260503211218 15 6 25.7 38.6 0.00 0.00 0.00 37 1014.0
20260503210718 15 18 17.7 24.1 0.00 0.00 0.00 37 1014.0
20260503210218 15 38 16.1 20.9 0.00 0.00 0.00 38 1014.0
20260503205719 15 19 16.1 20.9 0.00 0.00 0.00 38 1014.0
20260503205218 15 11 14.5 20.9 0.00 0.00 0.00 37 1014.0
20260503204719 15 13 19.3 30.6 0.00 0.00 0.00 38 1014.0
20260503204218 15 3 22.5 33.8 0.00 0.00 0.00 38 1014.0
20260503203718 15 12 14.5 20.9 0.00 0.00 0.00 38 1014.0
20260503203218 15 0 24.1 32.2 0.00 0.00 0.00 38 1014.0
20260503202718 15 346 19.3 24.1 0.00 0.00 0.00 38 1014.0
20260503202219 15 12 19.3 25.7 0.00 0.00 0.00 38 1014.0
20260503201719 15 356 12.9 17.7 0.00 0.00 0.00 38 1014.0
20260503201218 15 4 22.5 27.4 0.00 0.00 0.00 38 1014.0
20260503200718 15 20 16.1 32.2 0.00 0.00 0.00 37 1014.0
20260503200219 15 14 20.9 27.4 0.00 0.00 0.00 37 1014.0
20260503195718 15 13 17.7 20.9 0.00 0.00 0.00 37 1014.0
20260503195218 15 19 11.3 17.7 0.00 0.00 0.00 37 1014.0
20260503194718 15 351 16.1 20.9 0.00 0.00 0.00 37 1014.0
20260503194218 15 2 11.3 20.9 0.00 0.00 0.00 38 1014.0
20260503193718 15 53 17.7 20.9 0.00 0.00 0.00 38 1014.0
20260503193218 15 19 20.9 25.7 0.00 0.00 0.00 37 1014.0
20260503192719 15 11 19.3 27.4 0.00 0.00 0.00 37 1015.0
20260503192219 15 9 12.9 17.7 0.00 0.00 0.00 38 1015.0
20260503191718 15 18 17.7 25.7 0.00 0.00 0.00 38 1014.0
20260503191218 15 1 17.7 22.5 0.00 0.00 0.00 37 1014.0
20260503190718 15 25 16.1 22.5 0.00 0.00 0.00 38 1015.0
20260503190218 15 9 19.3 25.7 0.00 0.00 0.00 38 1015.0
20260503185718 15 14 19.3 25.7 0.00 0.00 0.00 38 1015.0
20260503185219 14 23 22.5 25.7 0.00 0.00 0.00 38 1015.0
20260503184718 15 18 16.1 25.7 0.00 0.00 0.00 38 1015.0
20260503184218 14 27 17.7 24.1 0.00 0.00 0.00 39 1015.0
20260503183718 14 0 19.3 25.7 0.00 0.00 0.00 38 1015.0
20260503183218 14 31 22.5 32.2 0.00 0.00 0.00 38 1015.0
20260503182718 14 26 17.7 24.1 0.00 0.00 0.00 38 1015.0
20260503182218 14 32 24.1 29.0 0.00 0.00 0.00 39 1015.0
20260503181718 14 30 17.7 22.5 0.00 0.00 0.00 39 1015.0
20260503181219 14 348 17.7 24.1 0.00 0.00 0.00 39 1015.0
20260503180718 14 47 14.5 25.7 0.00 0.00 0.00 39 1015.0
20260503180218 15 46 12.9 19.3 0.00 0.00 0.00 39 1015.0
20260503175718 15 48 17.7 22.5 0.00 0.00 0.00 38 1015.0
20260503175219 15 34 19.3 27.4 0.00 0.00 0.00 38 1015.0
20260503174718 14 10 16.1 20.9 0.00 0.00 0.00 39 1015.0
20260503174219 13 24 14.5 19.3 0.00 0.00 0.00 40 1015.0
20260503173718 13 5 17.7 25.7 0.00 0.00 0.00 40 1015.0
20260503173218 13 3 14.5 19.3 0.00 0.00 0.00 42 1015.0
20260503172718 13 30 12.9 19.3 0.00 0.00 0.00 41 1015.0
20260503172218 13 31 17.7 24.1 0.00 0.00 0.00 40 1015.0
20260503171718 13 20 24.1 30.6 0.00 0.00 0.00 41 1015.0
20260503171218 13 53 14.5 20.9 0.00 0.00 0.00 43 1015.0
20260503170718 13 34 16.1 25.7 0.00 0.00 0.00 41 1015.0
20260503170218 13 17 20.9 25.7 0.00 0.00 0.00 41 1015.0
20260503160218 11 30 17.7 25.7 0.00 0.00 0.00 44 1015.0